CZ-6A DEB, 61129

Orbit data source: Space-Track

CZ-6A DEB, 61129 is space debris in LEO originally from a launch on Tue, 06 Aug 2024 UTC launched from the Taiyaun Space Center, China (TSC). Debris objects in space refer to the collection of defunct objects orbiting the Earth. Examples of debris include non-operational satellites, rocket bodies, and fragments generated from explosions, collisions, or faulty payload assembly.

Loading next visibility...
Identifier
61129, 2024-140PX
Orbit
LEO
Country
Flag of CNCN / PRC
Related business
Manufacturer
SAST
Mission
Spacecraft
Bus & Motor
Unknown
Mass
Unknown
Launch date (UTC)
2024-08-06 (2 years ago)
Launch vehicle
Unknown
Launch site
Taiyaun Space Center, China (TSC)
Object type
Payload
Rocket body
Debris
Shape & HBR
Unknown shape, 0.1 m
Radar Cross Section
Small (<0.1 m²)

Expand to show TLE details & history
Last TLE update: 4 hours ago

TLE from 4 hours ago
0 CZ-6A DEB
1 61129U 24140PX  26118.86015662  .00003711  00000-0  96323-3 0  9990
2 61129  89.0020 277.7744 0073075 113.4783 247.4125 14.47948600 88898
Epoch: 2026-04-28T20:38Z
TLE epoch observation values (Epoch: 2026-04-28T20:38:37.531Z)
Latitude
-0.00008°
Longitude
111.28861°
Altitude
755.734 km
Speed
7.466 km/s
True Right ascension
18h 31m 05s
True Declination
0° 00' 00"
Sunlit
Object was in full shadow at epoch
Visualization orbit readout
Latitude
Unknown
Longitude
Unknown
Altitude
Unknown
Speed
Unknown
Apparent Right ascension
Unknown
Apparent Declination
Unknown
Sunlit
N/A
Visualization observer readout
Local Sidereal Time
08:19:49
Azimuth
Unknown
Elevation
Unknown
Doppler factor
Unknown
Orbital elements
Apogee altitude
781.205 km
Perigee altitude
677.33 km
Semi-major axis
7,107.405 km
Eccentricity
0.00731
Inclination
89.002°
RAAN
277.7744°
Arg. of periapsis
113.4783°
True anomaly
246.64208°
Mean anomaly
247.4125°
Eccentric anomaly
247.02702°
Mean motion
3.62223 °/min
Orbital period
99.39 mins
BSTAR
0.00096323
Loading maneuver chart data...
Computing Atmospheric mass density...
Loading historical data...
Loading historical data...
Loading historical data...
Loading historical data...
Loading historical data...
Loading historical data...
Loading historical data...

Documentation

Showing up to 5 results
|